Algona, IA

6:55 AM CST on February 25, 2018 (GMT -0600)
Algona Municipal

Weather History for KAXA - October, 2012

Change the Weather History Date:

Monday, October 1, 2012

  Actual Average Record
Temperature  
Mean Temperature 60 °F -  
Max Temperature 71 °F 66 °F 87 °F (2006)
Min Temperature 48 °F 43 °F 28 °F (2003)
Degree Days  
Heating Degree Days 6    
Growing Degree Days 10 (Base 50)    
Moisture  
Dew Point 38 °F    
Average Humidity 45    
Maximum Humidity 72    
Minimum Humidity 23    
Precipitation  
Precipitation 0.00 in - - ()
Sea Level Pressure  
Sea Level Pressure 29.91 in    
Wind  
Wind Speed 10 mph (NNW)    
Max Wind Speed 24 mph    
Max Gust Speed 31 mph    
Visibility 10 miles    
Events      
Averages and records for this station are not official NWS values.
T = Trace of Precipitation, MM = Missing Value Source: NWS Daily Summary

Daily Weather History Graph

Daily Weather History Graph

Search for Another Location

Airport or City:

Trip Planner

Search our weather history database for the weather conditions in past years. The results will help you decide how hot, cold, wet, or windy it might be!

Date:

Astronomy

Oct. 01, 2012 Rise Set
Actual Time 7:15 AM CDT 6:57 PM CDT
Civil Twilight 6:46 AM CDT 7:25 PM CDT
Nautical Twilight 6:13 AM CDT 7:58 PM CDT
Astronomical Twilight 5:40 AM CDT 8:31 PM CDT
Moon 7:30 PM CDT (10/1) 8:49 AM CDT (10/1)
Length of Visible Light 12h 39m
Length of Day
11h 42m
Full, 98% of the Moon is Illuminated
Oct 1
Full
Oct 8
Last Quarter
Oct 15
New
Oct 21
First Quarter
Oct 29
Full

Hourly Weather History & Observations

Time (CDT) Temp. Dew Point Humidity Pressure Visibility Wind Dir Wind Speed Gust Speed Precip Events Conditions
12:15 AM 57.2 °F 37.4 °F 48% 29.91 in 10.0 mi South 4.6 mph - N/A   Clear
12:35 AM 57.2 °F 35.6 °F 44% 29.91 in 10.0 mi South 5.8 mph - N/A   Clear
12:55 AM 55.4 °F 37.4 °F 51% 29.91 in 10.0 mi South 5.8 mph - N/A   Clear
1:15 AM 53.6 °F 37.4 °F 54% 29.91 in 10.0 mi South 6.9 mph - N/A   Clear
1:35 AM 53.6 °F 37.4 °F 54% 29.90 in 10.0 mi South 8.1 mph - N/A   Clear
1:55 AM 53.6 °F 37.4 °F 54% 29.90 in 10.0 mi South 8.1 mph - N/A   Clear
2:15 AM 53.6 °F 37.4 °F 54% 29.89 in 10.0 mi South 5.8 mph - N/A   Clear
2:35 AM 53.6 °F 37.4 °F 54% 29.89 in 10.0 mi South 8.1 mph - N/A   Clear
2:55 AM 51.8 °F 37.4 °F 58% 29.88 in 10.0 mi South 8.1 mph - N/A   Clear
3:35 AM 51.8 °F 37.4 °F 58% 29.88 in 10.0 mi South 9.2 mph - N/A   Clear
3:55 AM 50.0 °F 37.4 °F 62% 29.87 in 10.0 mi South 8.1 mph - N/A   Clear
4:15 AM 51.8 °F 37.4 °F 58% 29.88 in 10.0 mi SSW 5.8 mph - N/A   Clear
4:35 AM 50.0 °F 37.4 °F 62% 29.88 in 10.0 mi SW 4.6 mph - N/A   Clear
4:55 AM 50.0 °F 37.4 °F 62% 29.89 in 10.0 mi Calm Calm - N/A   Clear
5:15 AM 48.2 °F 37.4 °F 66% 29.88 in 10.0 mi Calm Calm - N/A   Clear
5:35 AM 50.0 °F 37.4 °F 62% 29.89 in 8.0 mi WNW 4.6 mph - N/A   Clear
6:15 AM 53.6 °F 39.2 °F 58% 29.89 in 10.0 mi NW 8.1 mph - N/A   Clear
6:35 AM 55.4 °F 41.0 °F 58% 29.89 in 10.0 mi NW 6.9 mph - N/A   Clear
6:55 AM 53.6 °F 41.0 °F 62% 29.89 in 10.0 mi NNW 8.1 mph - N/A   Clear
7:15 AM 51.8 °F 42.8 °F 71% 29.90 in 9.0 mi NNW 10.4 mph - N/A   Clear
7:35 AM 51.8 °F 42.8 °F 71% 29.90 in 9.0 mi NNW 6.9 mph - N/A   Clear
7:55 AM 53.6 °F 44.6 °F 72% 29.91 in 9.0 mi NNW 6.9 mph - N/A   Clear
8:15 AM 55.4 °F 46.4 °F 72% 29.91 in 9.0 mi NNW 8.1 mph - N/A   Clear
8:35 AM 59.0 °F 48.2 °F 67% 29.91 in 9.0 mi North 10.4 mph 16.1 mph N/A   Clear
8:55 AM 59.0 °F 48.2 °F 67% 29.92 in 9.0 mi North 12.7 mph - N/A   Clear
9:15 AM 60.8 °F 48.2 °F 63% 29.92 in 9.0 mi North 12.7 mph - N/A   Clear
9:35 AM 62.6 °F 48.2 °F 59% 29.92 in 10.0 mi North 12.7 mph 21.9 mph N/A   Clear
9:55 AM 64.4 °F 44.6 °F 49% 29.92 in 10.0 mi North 20.7 mph 27.6 mph N/A   Clear
10:15 AM 64.4 °F 44.6 °F 49% 29.93 in 10.0 mi North 15.0 mph 25.3 mph N/A   Clear
10:35 AM 66.2 °F 44.6 °F 46% 29.93 in 10.0 mi North 17.3 mph 26.5 mph N/A   Clear
10:55 AM 66.2 °F 42.8 °F 43% 29.93 in 10.0 mi North 18.4 mph - N/A   Clear
11:15 AM 68.0 °F 42.8 °F 40% 29.93 in 10.0 mi North 23.0 mph - N/A   Clear
11:35 AM 68.0 °F 44.6 °F 43% 29.93 in 10.0 mi North 16.1 mph 24.2 mph N/A   Clear
11:55 AM 69.8 °F 44.6 °F 40% 29.93 in 10.0 mi North 15.0 mph 26.5 mph N/A   Clear
12:15 PM 69.8 °F 42.8 °F 38% 29.93 in 10.0 mi North 17.3 mph 23.0 mph N/A   Clear
12:35 PM 69.8 °F 42.8 °F 38% 29.93 in 10.0 mi North 18.4 mph 28.8 mph N/A   Clear
1:15 PM 69.8 °F 37.4 °F 31% 29.92 in 9.0 mi North 18.4 mph 28.8 mph N/A   Clear
1:35 PM 69.8 °F 39.2 °F 33% 29.92 in 10.0 mi NNW 20.7 mph - N/A   Clear
1:55 PM 69.8 °F 37.4 °F 31% 29.91 in 9.0 mi NNW 19.6 mph 28.8 mph N/A   Clear
2:15 PM 71.6 °F 32.0 °F 23% 29.91 in 10.0 mi NNW 24.2 mph - N/A   Clear
2:35 PM 71.6 °F 33.8 °F 25% 29.90 in 10.0 mi NNW 23.0 mph 29.9 mph N/A   Clear
2:55 PM 71.6 °F 33.8 °F 25% 29.90 in 10.0 mi North 19.6 mph 31.1 mph N/A   Clear
3:15 PM 71.6 °F 32.0 °F 23% 29.90 in 10.0 mi North 20.7 mph 31.1 mph N/A   Clear
3:35 PM 71.6 °F 33.8 °F 25% 29.90 in 10.0 mi North 20.7 mph 29.9 mph N/A   Clear
3:55 PM 71.6 °F 35.6 °F 27% 29.90 in 10.0 mi North 19.6 mph 31.1 mph N/A   Clear
4:15 PM 71.6 °F 35.6 °F 27% 29.90 in 10.0 mi North 18.4 mph 28.8 mph N/A   Clear
4:35 PM 71.6 °F 35.6 °F 27% 29.90 in 10.0 mi North 21.9 mph 28.8 mph N/A   Clear
4:55 PM 71.6 °F 35.6 °F 27% 29.90 in 10.0 mi North 18.4 mph 26.5 mph N/A   Clear
5:15 PM 71.6 °F 37.4 °F 29% 29.91 in 10.0 mi North 12.7 mph 20.7 mph N/A   Clear
5:35 PM 69.8 °F 35.6 °F 28% 29.91 in 10.0 mi North 15.0 mph 26.5 mph N/A   Clear
5:55 PM 69.8 °F 35.6 °F 28% 29.91 in 10.0 mi North 19.6 mph 25.3 mph N/A   Clear
6:15 PM 68.0 °F 35.6 °F 30% 29.92 in 10.0 mi North 16.1 mph 24.2 mph N/A   Clear
6:35 PM 68.0 °F 35.6 °F 30% 29.92 in 10.0 mi North 13.8 mph - N/A   Clear
6:55 PM 66.2 °F 33.8 °F 30% 29.92 in 10.0 mi NNW 12.7 mph 19.6 mph N/A   Clear
7:15 PM 64.4 °F 33.8 °F 32% 29.92 in 10.0 mi NNW 11.5 mph 18.4 mph N/A   Clear
7:35 PM 62.6 °F 33.8 °F 34% 29.93 in 10.0 mi NNW 10.4 mph - N/A   Clear
7:55 PM 60.8 °F 33.8 °F 36% 29.93 in 10.0 mi NNW 10.4 mph - N/A   Clear
8:15 PM 60.8 °F 33.8 °F 36% 29.93 in 10.0 mi NNW 10.4 mph - N/A   Clear
8:35 PM 59.0 °F 33.8 °F 39% 29.94 in 10.0 mi NNW 11.5 mph - N/A   Clear
8:55 PM 59.0 °F 33.8 °F 39% 29.94 in 10.0 mi NNW 10.4 mph - N/A   Clear
9:15 PM 59.0 °F 33.8 °F 39% 29.94 in 10.0 mi NNW 11.5 mph - N/A   Clear
9:35 PM 57.2 °F 33.8 °F 41% 29.95 in 10.0 mi NNW 11.5 mph - N/A   Clear
9:55 PM 57.2 °F 33.8 °F 41% 29.95 in 10.0 mi NNW 10.4 mph - N/A   Clear
10:15 PM 57.2 °F 33.8 °F 41% 29.95 in 10.0 mi North 10.4 mph - N/A   Clear
10:35 PM 57.2 °F 32.0 °F 38% 29.95 in 10.0 mi NNW 9.2 mph - N/A   Clear
10:55 PM 55.4 °F 32.0 °F 41% 29.95 in 10.0 mi North 8.1 mph - N/A   Clear
11:15 PM 53.6 °F 32.0 °F 44% 29.95 in 10.0 mi NNW 8.1 mph - N/A   Clear
11:35 PM 53.6 °F 32.0 °F 44% 29.95 in 10.0 mi NNW 9.2 mph - N/A   Clear
11:55 PM 51.8 °F 32.0 °F 47% 29.95 in 10.0 mi NNW 5.8 mph - N/A   Clear